Weather History for Sauk Centre, MN

Change the Weather History Date:

Thursday, March 14, 2013

  Actual Average (KGHW) Record (KGHW)
Temperature  
Mean Temperature 26 °F -  
Max Temperature 32 °F 36 °F 65 °F (1981)
Min Temperature 21 °F 18 °F -14 °F (1960)
Degree Days  
Heating Degree Days 38    
Moisture  
Dew Point 23 °F    
Average Humidity 86    
Maximum Humidity 93    
Minimum Humidity 69    
Precipitation  
Precipitation 0.00 in - - ()
Sea Level Pressure  
Sea Level Pressure 30.06 in    
Wind  
Wind Speed 6 mph (SSE)    
Max Wind Speed 12 mph    
Max Gust Speed -    
Visibility 9 miles    
Events Snow    
Averages and records for this station are not official NWS values.
T = Trace of Precipitation, MM = Missing Value Source: NWS Daily Summary

Daily Weather History Graph

Daily Weather History Graph

Search for Another Location

Airport:

Trip Planner

Search our weather history database for the weather conditions in past years. The results will help you decide how hot, cold, wet, or windy it might be!

Date:

Astronomy

Mar. 14, 2013 Rise Set
Actual Time 7:33 AM CDT 7:24 PM CDT
Civil Twilight 7:04 AM CDT 7:54 PM CDT
Nautical Twilight 6:29 AM CDT 8:28 PM CDT
Astronomical Twilight 5:54 AM CDT 9:04 PM CDT
Moon 8:37 AM CDT (3/14) 10:54 PM CDT (3/14)
Length of Visible Light 12h 50m
Length of Day
11h 50m
Waxing Crescent, 9% of the Moon is Illuminated
Mar 14
Waxing Crescent
Mar 19
First Quarter
Mar 27
Full
Apr 2
Last Quarter
Apr 10
New

Hourly Weather History & Observations

Time (CDT) Temp. Windchill Dew Point Humidity Pressure Visibility Wind Dir Wind Speed Gust Speed Precip Events Conditions
12:15 AM 23.0 °F 12.4 °F 17.6 °F 80% 30.14 in 10.0 mi SE 10.4 mph - N/A   Overcast
12:35 AM 23.0 °F 17.0 °F 19.4 °F 86% 30.14 in 10.0 mi SE 4.6 mph - N/A   Overcast
12:55 AM 23.0 °F 14.7 °F 19.4 °F 86% 30.15 in 10.0 mi SE 6.9 mph - N/A   Overcast
1:15 AM 23.0 °F 13.9 °F 19.4 °F 86% 30.13 in 10.0 mi SE 8.1 mph - N/A   Overcast
1:35 AM 23.0 °F 13.9 °F 19.4 °F 86% 30.14 in 10.0 mi SE 8.1 mph - N/A   Overcast
1:55 AM 23.0 °F 13.1 °F 19.4 °F 86% 30.12 in 7.0 mi SE 9.2 mph - N/A Snow Light Snow
2:15 AM 23.0 °F 13.1 °F 19.4 °F 86% 30.11 in 7.0 mi SE 9.2 mph - N/A Snow Light Snow
2:55 AM 23.0 °F 12.4 °F 21.2 °F 93% 30.09 in 7.0 mi ESE 10.4 mph - N/A Snow Light Snow
3:15 AM 23.0 °F 12.4 °F 21.2 °F 93% 30.08 in 10.0 mi ESE 10.4 mph - N/A   Overcast
3:35 AM 23.0 °F 13.9 °F 21.2 °F 93% 30.09 in 10.0 mi ESE 8.1 mph - N/A   Overcast
3:55 AM 23.0 °F 12.4 °F 21.2 °F 93% 30.08 in 10.0 mi ESE 10.4 mph - N/A   Overcast
4:15 AM 23.0 °F 13.1 °F 21.2 °F 93% 30.07 in 10.0 mi ESE 9.2 mph - N/A   Overcast
4:35 AM 23.0 °F 11.7 °F 21.2 °F 93% 30.05 in 10.0 mi ESE 11.5 mph - N/A   Overcast
4:55 AM 23.0 °F 12.4 °F 21.2 °F 93% 30.04 in 10.0 mi ESE 10.4 mph - N/A   Mostly Cloudy
5:15 AM 23.0 °F 14.7 °F 21.2 °F 93% 30.05 in 10.0 mi ESE 6.9 mph - N/A   Overcast
5:35 AM 23.0 °F 13.1 °F 21.2 °F 93% 30.05 in 10.0 mi ESE 9.2 mph - N/A   Overcast
5:55 AM 23.0 °F 12.4 °F 21.2 °F 93% 30.04 in 10.0 mi ESE 10.4 mph - N/A   Overcast
6:15 AM 23.0 °F 15.8 °F 21.2 °F 93% 30.05 in 10.0 mi East 5.8 mph - N/A   Mostly Cloudy
6:35 AM 21.2 °F 11.7 °F 19.4 °F 93% 30.05 in 10.0 mi SE 8.1 mph - N/A   Scattered Clouds
6:55 AM 21.2 °F 13.6 °F 19.4 °F 93% 30.05 in 10.0 mi ESE 5.8 mph - N/A   Clear
7:15 AM 21.2 °F 13.6 °F 19.4 °F 93% 30.05 in 10.0 mi ESE 5.8 mph - N/A   Clear
7:35 AM 21.2 °F 16.4 °F 19.4 °F 93% 30.07 in 7.0 mi SE 3.5 mph - N/A   Scattered Clouds
7:55 AM 21.2 °F 13.6 °F 19.4 °F 93% 30.07 in 7.0 mi East 5.8 mph - N/A   Overcast
8:15 AM 21.2 °F 13.6 °F 19.4 °F 93% 30.07 in 7.0 mi ESE 5.8 mph - N/A   Overcast
8:35 AM 21.2 °F 16.4 °F 19.4 °F 93% 30.08 in 7.0 mi East 3.5 mph - N/A   Overcast
8:55 AM 23.0 °F 17.0 °F 19.4 °F 86% 30.07 in 7.0 mi East 4.6 mph - N/A   Overcast
9:15 AM 23.0 °F 18.4 °F 21.2 °F 93% 30.08 in 7.0 mi East 3.5 mph - N/A   Overcast
9:55 AM 23.0 °F 15.8 °F 21.2 °F 93% 30.09 in 5.0 mi SE 5.8 mph - N/A   Overcast
10:15 AM 24.8 °F 19.1 °F 21.2 °F 86% 30.09 in 5.0 mi SE 4.6 mph - N/A   Overcast
10:35 AM 24.8 °F 19.1 °F 21.2 °F 86% 30.09 in 5.0 mi ESE 4.6 mph - N/A   Overcast
10:55 AM 26.6 °F 20.0 °F 23.0 °F 86% 30.09 in 7.0 mi SSE 5.8 mph - N/A   Overcast
11:15 AM 26.6 °F - 23.0 °F 86% 30.09 in 5.0 mi Calm Calm - N/A   Mostly Cloudy
11:35 AM 26.6 °F - 23.0 °F 86% 30.10 in 7.0 mi Calm Calm - N/A   Scattered Clouds
11:55 AM 30.2 °F - 23.0 °F 75% 30.09 in 10.0 mi Calm Calm - N/A   Clear
12:35 PM 30.2 °F 25.4 °F 23.0 °F 75% 30.08 in 10.0 mi East 4.6 mph - N/A   Clear
12:55 PM 32.0 °F 28.7 °F 23.0 °F 69% 30.08 in 10.0 mi East 3.5 mph - N/A   Clear
1:15 PM 32.0 °F - 23.0 °F 69% 30.09 in 10.0 mi Calm Calm - N/A   Clear
1:35 PM 32.0 °F 27.5 °F 24.8 °F 75% 30.07 in 10.0 mi South 4.6 mph - N/A   Clear
1:55 PM 32.0 °F 27.5 °F 24.8 °F 75% 30.07 in 10.0 mi South 4.6 mph - N/A   Clear
2:15 PM 32.0 °F 27.5 °F 24.8 °F 75% 30.09 in 10.0 mi SW 4.6 mph - N/A   Clear
2:35 PM 32.0 °F 24.8 °F 24.8 °F 75% 30.10 in 10.0 mi West 8.1 mph - N/A   Clear
2:55 PM 32.0 °F 24.8 °F 26.6 °F 80% 30.11 in 10.0 mi West 8.1 mph - N/A   Clear
3:15 PM 32.0 °F 28.7 °F 26.6 °F 80% 30.08 in 10.0 mi SSW 3.5 mph - N/A   Clear
3:35 PM 32.0 °F 26.4 °F 26.6 °F 80% 30.06 in 10.0 mi South 5.8 mph - N/A   Clear
3:55 PM 32.0 °F 28.7 °F 26.6 °F 80% 30.06 in 10.0 mi SSE 3.5 mph - N/A   Clear
4:15 PM 32.0 °F - 26.6 °F 80% 30.07 in 10.0 mi Calm Calm - N/A   Clear
4:35 PM 32.0 °F - 26.6 °F 80% 30.06 in 10.0 mi Calm Calm - N/A   Clear
4:55 PM 32.0 °F - 26.6 °F 80% 30.07 in 10.0 mi Calm Calm - N/A   Clear
5:15 PM 32.0 °F 27.5 °F 26.6 °F 80% 30.08 in 10.0 mi West 4.6 mph - N/A   Clear
5:35 PM 32.0 °F 28.7 °F 26.6 °F 80% 30.07 in 10.0 mi WSW 3.5 mph - N/A   Clear
5:55 PM 32.0 °F - 26.6 °F 80% 30.06 in 10.0 mi Calm Calm - N/A   Clear
6:15 PM 32.0 °F - 26.6 °F 80% 30.05 in 10.0 mi Calm Calm - N/A   Clear
6:35 PM 32.0 °F 27.5 °F 26.6 °F 80% 30.04 in 10.0 mi SSW 4.6 mph - N/A   Clear
6:55 PM 32.0 °F 28.7 °F 26.6 °F 80% 30.04 in 10.0 mi South 3.5 mph - N/A   Clear
7:15 PM 32.0 °F - 26.6 °F 80% 30.03 in 10.0 mi Calm Calm - N/A   Clear
7:35 PM 30.2 °F 24.3 °F 26.6 °F 86% 30.02 in 7.0 mi South 5.8 mph - N/A   Clear
7:55 PM 30.2 °F 24.3 °F 26.6 °F 86% 30.02 in 10.0 mi South 5.8 mph - N/A   Clear
8:15 PM 28.4 °F 23.3 °F 26.6 °F 93% 30.02 in 10.0 mi South 4.6 mph - N/A   Clear
8:35 PM 28.4 °F 24.6 °F 26.6 °F 93% 30.02 in 10.0 mi SW 3.5 mph - N/A   Clear
8:55 PM 28.4 °F 23.3 °F 26.6 °F 93% 30.02 in 10.0 mi WSW 4.6 mph - N/A   Clear
9:15 PM 28.4 °F 22.2 °F 26.6 °F 93% 30.02 in 10.0 mi WSW 5.8 mph - N/A   Clear
9:35 PM 28.4 °F 22.2 °F 24.8 °F 86% 30.02 in 7.0 mi West 5.8 mph - N/A   Clear
9:55 PM 26.6 °F 21.2 °F 24.8 °F 93% 30.02 in 7.0 mi West 4.6 mph - N/A   Clear
10:15 PM 26.6 °F 22.6 °F 24.8 °F 93% 30.01 in 7.0 mi WNW 3.5 mph - N/A   Clear
10:35 PM 26.6 °F 22.6 °F 24.8 °F 93% 30.01 in 7.0 mi West 3.5 mph - N/A   Clear
10:55 PM 26.6 °F - 24.8 °F 93% 30.00 in 7.0 mi Calm Calm - N/A   Clear
11:15 PM 26.6 °F - 24.8 °F 93% 30.00 in 7.0 mi Calm Calm - N/A   Clear
11:35 PM 28.4 °F 23.3 °F 24.8 °F 86% 30.00 in 7.0 mi WNW 4.6 mph - N/A   Clear
11:55 PM 28.4 °F 21.2 °F 24.8 °F 86% 29.99 in 7.0 mi WNW 6.9 mph - N/A   Clear